sat.trackr.live / text

‹ back to catalog

STARLINK-2461

NORAD 48428 · 2021-040A

PAYLOAD ACTIVE UNKNOWN

§ Identity

Operator
Country
US
Launch date
2021-05-09
Launch site
AFETR
Launch vehicle
Mass (kg)
RCS (m²)

Purposes: comms

External: N2YO · Heavens-Above · Gunter

§ Orbital elements

Epoch: 2026-05-24T20:00:05.394528Z

Period
94.01 min
Inclination
53.1582°
Eccentricity
0.0001239
Mean motion
15.31721615 rev/d
Perigee alt
469.8 km
Apogee alt
471.5 km
Semi-major
6,848.8 km
B*
8.2578e-5
RAAN
184.5864°
Arg perigee
73.9352°
Mean anomaly
286.1785°
Rev number
27,834

§ Raw data

STARLINK-24611 48428U 21040A   26144.83339577  .00002200  00000+0  82578-4 0  99922 48428  53.1582 184.5864 0001239  73.9352 286.1785 15.31721615278345

JSON: /api/v1/satellites/48428 · /tle

For live sub-satellite position, see the globe view (requires WebGL).

§ Visibility from observer

Set your observer location to see the next 7 days of passes ≥ 10°. The values pass through the URL so the page stays shareable.

No JS? Fill the form by hand. The geolocation button needs JavaScript.